Location: Grisols
(45.0093°N, 3.1167°E)
Time: 00:21:11
(UTC+00:00)

Cosmos 1153 Rocket - Pass Details

Date: 21 October 2019
Orbit: 952 x 1007 km, 82.9° (Epoch: 13 November)

Event Time Altitude Azimuth Distance (km) Brightness Sun altitude
Rises 18:01:42 0° 354° (N) 3,642 7.5 -12.8°
Reaches altitude 10° 18:04:15 10° 358° (N) 2,690 6.8 -13.2°
Maximum altitude 18:10:20 62° 79° (E) 1,070 4.4 -14.3°
Drops below altitude 10° 18:16:23 10° 159° (SSE) 2,682 6.6 -15.4°
Sets 18:18:55 0° 163° (SSE) 3,629 7.3 -15.8°
